This demonstration page uses our WeatherBlox Daily Observations layout. Learn more.

Left ArrowRight Arrow

Hourly Observations for January 3, 2020

Temp ( °F °C ) Dew Point ( °F °C ) Humidity (%) Winds ( mph kmh ) Pressure ( in mb ) Visibility ( mi km ) Precip ( " mm )
12:17 am 00:17 Cloudy with Light Rain 48 8.9 47 8.3 96 96 Calm 29.74 1007 5 8 0.01 0.25
12:53 am 00:53 Cloudy with Light Rain 48 8.9 47 8.3 96 96 Calm 29.74 1007 4 6 0.03 0.76
1:53 am 01:53 Cloudy with Light Rain 48 8.9 48 8.9 100 100 E 3 6 29.72 1007 3 5 0.03 0.76
2:53 am 02:53 Cloudy with Light Rain 49 9.4 48 8.9 97 97 WNW 3 6 29.74 1007 5 8 0.03 0.76
3:07 am 03:07 Cloudy with Light Rain 49 9.4 48 8.9 97 97 NNW 7 11 29.75 1007 7 11 0.00 0.00
3:22 am 03:22 Cloudy with Rain 49 9.4 48 8.9 97 97 N 6 9 29.75 1007 5 8 0.02 0.51
3:53 am 03:53 Cloudy with Light Rain 49 9.4 48 8.9 97 97 Calm 29.75 1008 4 6 0.05 1.27
4:07 am 04:07 Cloudy with Light Rain 49 9.4 48 8.9 97 97 Calm 29.75 1007 3 4 0.02 0.51
4:12 am 04:12 Cloudy with Light Rain 48 8.9 48 8.9 100 100 Calm 29.74 1007 2 2 0.03 0.76
4:19 am 04:19 Cloudy with Light Rain 48 8.9 48 8.9 100 100 S 3 6 29.75 1007 1 2 0.03 0.76
4:31 am 04:31 Cloudy with Light Rain 48 8.9 48 8.9 100 100 Calm 29.74 1007 2 3 0.04 1.02
4:38 am 04:38 Cloudy with Light Rain 48 8.9 48 8.9 100 100 Calm 29.74 1007 3 4 0.04 1.02
4:53 am 04:53 Cloudy with Light Rain 48 8.9 47 8.3 96 96 Calm 29.73 1007 2 3 0.06 1.52
5:14 am 05:14 Cloudy with Light Rain 48 8.9 48 8.9 100 100 Calm 29.75 1007 3 5 0.01 0.25
5:32 am 05:32 Cloudy with Light Rain 48 8.9 47 8.3 96 96 Calm 29.76 1008 2 3 0.02 0.51
5:40 am 05:40 Cloudy with Light Rain 48 8.9 47 8.3 96 96 Calm 29.77 1008 1 2 0.02 0.51
5:48 am 05:48 Cloudy with Light Rain 48 9 46 8 94 94 Calm 29.78 1008 2 3 0.03 0.76
5:53 am 05:53 Cloudy with Light Rain 48 8.9 48 8.9 100 100 Calm 29.77 1008 2 3 0.03 0.76
5:56 am 05:56 Cloudy with Light Rain 48 8.9 48 8.9 100 100 Calm 29.77 1008 2 2 0.00 0.00
6:14 am 06:14 Cloudy with Light Rain 48 8.9 47 8.3 96 96 ENE 3 6 29.76 1008 1 1 0.01 0.25
6:21 am 06:21 Cloudy with Light Rain 48 8.9 47 8.3 96 96 Calm 29.75 1007 2 2 0.02 0.51
6:31 am 06:31 Cloudy with Light Rain 48 8.9 48 8.9 100 100 Calm 29.77 1008 2 3 0.02 0.51
6:39 am 06:39 Cloudy with Light Rain 48 8.9 48 8.9 100 100 Calm 29.78 1009 3 5 0.02 0.51
6:49 am 06:49 Cloudy with Light Rain 48 9 48 9 100 100 Calm 29.78 1008 2 3 0.02 0.51
6:53 am 06:53 Cloudy with Light Rain 48 8.9 48 8.9 100 100 Calm 29.77 1008 2 2 0.03 0.76
7:06 am 07:06 Cloudy with Light Rain 48 8.9 47 8.3 96 96 Calm 29.77 1008 1 1 0.01 0.25
7:20 am 07:20 Cloudy with Light Rain 48 8.9 48 8.9 100 100 Calm 29.78 1009 1 2 0.02 0.51
7:28 am 07:28 Cloudy with Light Rain 48 8.9 47 8.3 96 96 Calm 29.79 1009 2 3 0.02 0.51
7:45 am 07:45 Cloudy with Light Rain 48 8.9 48 8.9 100 100 Calm 29.80 1009 2 2 0.03 0.76
7:53 am 07:53 Cloudy with Light Rain 48 8.9 48 8.9 100 100 Calm 29.79 1009 1 2 0.03 0.76
8:17 am 08:17 Cloudy with Light Rain 48 8.9 48 8.9 100 100 Calm 29.80 1009 1 1 0.01 0.25
8:28 am 08:28 Cloudy with Light Rain 49 9.4 48 8.9 97 97 Calm 29.81 1009 1 2 0.02 0.51
8:39 am 08:39 Cloudy with Light Rain 48 8.9 48 8.9 100 100 Calm 29.82 1010 1 1 0.02 0.51
8:53 am 08:53 Cloudy with Light Rain 49 9.4 48 8.9 97 97 Calm 29.80 1009 1 1 0.02 0.51
9:00 am 09:00 Cloudy with Light Rain 49 9.4 49 9.4 100 100 E 3 6 29.80 1009 1 2 0.00 0.00
9:08 am 09:08 Cloudy with Light Rain 50 10 49 9.4 96 96 E 3 6 29.80 1009 1 1 0.00 0.00
9:14 am 09:14 Cloudy with Light Rain 50 10 49 9.4 96 96 E 3 6 29.80 1009 2 3 0.00 0.00
9:19 am 09:19 Cloudy with Mist and Fog 50 10 49 9.4 96 96 Calm 29.80 1009 2 3 0.00 0.00
9:35 am 09:35 Cloudy with Mist and Fog 50 10 50 10 100 100 Calm 29.81 1009 3 5 0.00 0.00
9:53 am 09:53 Cloudy with Mist and Fog 51 10.6 51 10.6 100 100 Calm 29.80 1009 3 5 0.00 0.00
10:18 am 10:18 Cloudy 52 11.1 51 10.6 97 97 Calm 29.82 1010 8 13 0.00 0.00
10:53 am 10:53 Cloudy 53 11.7 51 10.6 93 93 SSW 5 7 29.81 1009 10 16 0.00 0.00
11:53 am 11:53 Cloudy 53 11.7 51 10.6 93 93 Calm 29.78 1009 10 16 0.00 0.00
12:53 pm 12:53 Cloudy with Light Rain 53 11.7 52 11.1 96 96 WSW 3 6 29.76 1008 5 8 0.03 0.76
1:53 pm 13:53 Cloudy with Light Rain 53 11.7 52 11.1 96 96 SSW 3 6 29.75 1008 8 13 0.02 0.51
2:04 pm 14:04 Cloudy with Light Rain 53 11.7 52 11.1 96 96 VRB 3 6 29.74 1007 8 13 0.00 0.00
2:27 pm 14:27 Cloudy with Light Rain 53 11.7 52 11.1 96 96 Calm 29.73 1007 7 11 0.00 0.00
2:53 pm 14:53 Cloudy 53 11.7 52 11.1 96 96 WSW 3 6 29.74 1007 10 16 0.01 0.25
3:30 pm 15:30 Cloudy 53 11.7 52 11.1 96 96 Calm 29.74 1007 10 16 0.00 0.00
3:53 pm 15:53 Cloudy with Light Rain 53 11.7 52 11.1 96 96 Calm 29.74 1007 8 13 0.00 0.00
4:07 pm 16:07 Cloudy with Light Rain 53 11.7 52 11.1 96 96 Calm 29.75 1008 7 11 0.00 0.00
4:19 pm 16:19 Cloudy with Light Rain 53 11.7 52 11.1 96 96 Calm 29.74 1007 7 11 0.00 0.00
4:53 pm 16:53 Cloudy with Light Rain 50 10 50 10 100 100 NNW 8 13 29.76 1008 4 6 0.02 0.51
5:15 pm 17:15 Cloudy with Light Rain 50 10 N/A N/A NNW 6 9 29.77 1008 3 5 0.02 0.51
5:50 pm 17:50 Cloudy with Light Rain 50 10 N/A N/A Calm 29.78 1008 4 6 0.05 1.27
5:53 pm 17:53 Cloudy with Light Rain 50 10 N/A N/A Calm 29.77 1008 4 6 0.05 1.27
6:09 pm 18:09 Cloudy with Light Rain 50 10 N/A N/A Calm 29.78 1008 5 8 0.01 0.25
6:25 pm 18:25 Cloudy with Light Rain 50 10 N/A N/A Calm 29.79 1009 7 11 0.02 0.51
6:34 pm 18:34 Cloudy with Light Rain 50 10 N/A N/A Calm 29.78 1008 9 14 0.02 0.51
6:50 pm 18:50 Cloudy with Light Rain 48 9 N/A N/A NW 3 6 29.79 1009 10 16 0.02 0.51
6:53 pm 18:53 Cloudy with Light Rain 48 9 N/A N/A WNW 5 7 29.78 1009 10 16 0.02 0.51
7:09 pm 19:09 Cloudy with Light Rain 48 9 N/A N/A WNW 6 9 29.79 1009 4 6 0.01 0.25
7:34 pm 19:34 Cloudy with Light Rain 48 9 N/A N/A NW 3 6 29.78 1008 4 6 0.02 0.51
7:53 pm 19:53 Cloudy with Light Rain 48 9 N/A N/A NNW 3 6 29.77 1008 6 10 0.03 0.76
8:03 pm 20:03 Cloudy with Light Rain 48 9 N/A N/A N 3 6 29.78 1008 7 11 0.00 0.00
8:14 pm 20:14 Cloudy with Light Rain 48 9 N/A N/A NW 3 6 29.78 1008 8 13 0.00 0.00
8:34 pm 20:34 Cloudy with Light Rain 48 9 N/A N/A WNW 5 7 29.80 1009 4 6 0.02 0.51
8:42 pm 20:42 Cloudy with Light Rain 48 9 N/A N/A NW 6 9 29.80 1009 3 4 0.03 0.76
8:53 pm 20:53 Cloudy with Light Rain 48 9 N/A N/A NW 6 9 29.78 1009 3 5 0.04 1.02
9:01 pm 21:01 Cloudy with Light Rain 48 9 N/A N/A WNW 6 9 29.80 1009 4 6 0.01 0.25
9:16 pm 21:16 Cloudy with Light Rain 48 9 N/A N/A WNW 5 7 29.80 1009 4 6 0.02 0.51
9:53 pm 21:53 Cloudy with Light Rain 48 9 N/A N/A NNW 3 6 29.78 1009 5 8 0.04 1.02
10:53 pm 22:53 Cloudy 46 8 N/A N/A NW 5 7 29.80 1009 7 11 0.02 0.51
11:02 pm 23:02 Cloudy with Haze 46 8 N/A N/A WNW 5 7 29.81 1010 6 10 0.00 0.00
11:43 pm 23:43 Cloudy 47 8.3 47 8.3 100 100 NW 7 11 29.80 1009 9 14 0.00 0.00
11:53 pm 23:53 Cloudy 47 8.3 47 8.3 100 100 NNW 5 7 29.80 1009 9 14 0.00 0.00

Powered by AerisWeather